SCP
0 0 0 0 0 0 0 0 0 0 0 0 0 0 0 0 0 0 0 0 0 0 0 0 0 0 0 0 0 0 0 -0 -0 0 -0 -0 0 -0
0 0 0 0 0 0 0 0 0 0 0 0 0 0 0 0 0 0 0 0 0 0 0 0 0 0 0 0 0 0 0 -0 0 -0 -0 -0 -0 0
0 0 0 0 0 0 0 0 0 0 0 0 0 0 0 0 0 0 0 0 0 0 0 0 0 0 0 0 0 0 -0 0 0 0 0 0 0 0
0 0 0 0 0 0 0 0 0 0 0 0 0 0 0 0 0 0 0 0 0 0 0 0 0 0 0 0 0 0 0 -0 -0 -0 0 0 0 0
0 0 0 0 0 0 0 0 0 0 0 0 0 0 0 0 0 0 0 0 0 0 0 0 0 0 0 0 0 0 -0 -0 -0 -0 0 0 0 -0
0 0 0 0 0 0 0 0 0 0 0 0 0 0 0 0 0 0 0 0 0 0 0 0 0 0 0 0 0 0 -0 -0 -0 -0 -0 0 0 0
0 0 0 0 0 0 0 0 0 -0 0 0 0 0 0 0 0 0 0 0 0 0 0 0 0 0 0 0 0 0 -0 -0 -0 -0 0 0 -0 -0
0 0 0 0 0 0 0 -0 -0 -0 0 0 0 0 0 0 0 0 0 0 0 0 0 0 0 0 0 0 0 0 -0 -0 -0 -0 0 0 0 -0
0 0 0 0 0 0 -0 -0 -0 -0 -0 0 0 0 0 0 0 0 0 0 0 0 0 0 0 0 0 0 0 0 -0 0 -0 -0 0 0 0 0
0 0 0 0 0 0 -0 -0 -0 -0 0 -0 -0 -0 0 0 0 0 0 0 0 0 0 0 0 0 0 0 0 -0 -0 -0 0 -0 -0 -0 -0 -0
-0 0 0 0 0 -0 -0 -0 -0 -0 0 -0 -0 0 0 0 0 0 0 0 0 0 0 0 0 0 0 0 0 0 0 -0 0 -0 -0 -0 -0 -0
0 -0 0 0 0 0 -0 -0 -0 0 -0 -0 -0 0 0 0 0 0 0 0 0 0 0 0 0 0 0 0 0 0 0 -0 0 0 -0 -0 -0 0
0 0 0 0 0 0 -0 -0 0 0 -0 -0 0 0 0 -0 0 0 0 0 0 0 0 0 0 0 0 0 0 0 0 0 0 0 0 -0 -0 0
0 0 0 0 0 0 0 -0 -0 0 -0 -0 0 -0 -0 -0 0 0 0 0 0 0 0 0 0 0 0 0 0 0 0 0 0 0 0 0 0 -0
0 0 0 0 0 0 -0 -0 -0 -0 -0 -0 0 -0 -0 0 0 0 0 0 0 0 0 -0 -0 0 0 0 0 0 0 0 -0 0 0 0 0 0
0 0 0 0 0 0 -0 -0 -0 -0 -0 -0 -0 -0 0 0 0 0 0 0 0 0 0 0 -0 0 -0 0 -0 0 0 -0 0 0 0 0 0 0
0 0 0 0 0 0 0 -0 -0 0 -0 -0 -0 -0 0 0 0 0 0 0 0 0 0 0 0 0 0 -0 -0 -0 -0 0 0 0 -0 -0 0 0
0 0 0 0 0 0 0 -0 -0 0 -0 0 -0 0 0 0 0 0 0 0 0 0 0 0 0 0 -0 0 -0 -0 -0 -0 -0 -0 0 -0 -0 0
0 0 0 0 0 0 0 -0 -0 0 0 0 0 0 0 0 0 0 0 0 0 0 0 0 0 0 0 -0 0 0 -0 -0 -0 -0 -0 -0 -0 -0
0 0 0 0 0 0 0 -0 -0 0 0 0 0 0 0 0 0 0 0 0 0 0 0 0 0 0 0 -0 -0 -0 -0 -0 -0 -0 -0 -0 -0 0
0 0 0 0 0 0 0 -0 -0 0 0 0 0 0 0 0 0 0 0 0 0 0 0 0 0 0 0 0 0 -0 -0 -0 -0 -0 0 -0 -0 -0
0 0 0 0 0 0 0 -0 -0 0 0 0 0 0 0 0 0 0 0 0 0 0 0 0 0 0 0 0 0 0 -0 -0 0 0 0 -0 -0 -0
0 0 0 0 0 0 0 -0 -0 0 0 0 0 0 0 0 0 0 0 0 0 0 0 0 0 0 0 0 0 0 -0 -0 -0 0 0 0 0 0
Wind_Speed_500mb
55 53 46 39 28 29 29 35 38 35 21 12 12 12 22 31 37 33 30 24 38 51 56 56 55 53 51 48 45 46 41 40 37 32 31 29 27 26
51 51 44 33 26 23 27 34 35 34 27 19 10 7 21 31 25 28 24 27 39 46 47 53 61 54 48 45 40 45 43 39 36 33 31 30 28 25
47 44 36 28 26 24 26 32 35 27 25 25 9 8 23 22 20 22 17 27 37 36 46 49 58 71 65 60 56 49 44 41 38 37 33 29 22 21
40 40 37 32 29 27 28 30 27 18 12 19 7 10 17 18 17 17 22 24 26 35 38 44 55 65 68 61 68 65 53 44 38 38 32 28 22 19
45 38 37 36 36 33 27 26 22 21 17 11 10 13 13 15 16 20 25 29 35 36 42 49 53 69 80 71 61 64 58 53 45 40 33 26 24 19
43 38 40 39 38 33 27 28 25 20 16 15 16 15 20 24 24 30 35 34 31 35 38 46 55 57 77 93 73 64 63 59 54 43 32 27 24 23
56 52 49 43 32 23 29 30 21 20 22 22 23 25 28 28 34 33 36 36 39 34 32 43 51 60 61 84 91 64 61 61 57 51 48 36 28 25
69 63 55 37 43 36 35 31 25 21 26 24 33 33 32 29 31 33 37 42 53 41 44 47 48 56 65 74 91 68 58 59 59 55 49 43 38 36
69 65 50 48 42 42 38 37 36 31 34 34 40 37 33 30 26 30 38 42 51 50 47 44 44 55 60 64 85 71 55 55 53 51 48 48 47 43
67 57 46 54 48 44 46 46 44 45 47 47 45 42 37 30 26 28 29 41 51 52 53 55 46 46 61 60 76 72 51 52 54 52 50 46 43 39
57 58 59 56 51 45 44 47 49 50 50 49 46 41 29 29 30 30 43 48 56 58 54 48 47 41 54 61 67 72 49 47 50 50 50 50 45 41
68 64 59 59 49 41 41 43 49 48 42 42 41 34 29 29 33 40 46 53 50 46 57 43 45 51 43 55 67 69 52 44 50 53 50 53 52 57
78 70 64 56 52 45 39 41 47 44 37 36 36 31 31 28 34 37 44 47 51 53 48 46 47 48 54 49 58 75 60 45 50 54 52 54 54 55
79 73 71 64 58 49 44 43 46 40 34 33 36 35 33 35 35 33 38 39 41 42 46 48 47 44 47 54 59 68 76 62 53 56 58 50 53 55
79 78 73 64 59 50 44 44 40 38 35 35 39 43 41 41 38 37 36 36 45 46 47 51 53 42 40 52 53 62 76 78 66 54 49 52 59 55
75 79 71 64 54 52 47 44 38 37 36 36 38 36 33 36 32 31 34 30 33 37 39 41 48 50 37 42 48 55 61 75 78 73 69 62 59 64
86 82 73 63 56 52 50 46 38 38 36 37 40 36 30 26 25 23 29 23 25 31 39 38 43 50 47 44 45 47 55 64 74 85 92 89 82 75
82 78 70 61 59 57 53 48 42 34 33 31 36 34 35 30 23 20 22 22 25 28 31 33 34 40 45 46 44 46 53 56 59 70 82 93 98 90
74 71 69 64 60 54 50 46 46 36 30 30 27 25 27 28 28 24 21 21 23 26 27 28 33 37 38 40 41 43 43 46 49 58 64 74 82 90
69 69 65 59 56 53 50 47 43 39 33 27 23 22 21 25 29 27 21 18 19 23 22 25 29 34 34 38 38 37 37 37 42 45 50 55 61 66
65 62 59 58 54 50 47 45 40 37 34 30 25 20 19 23 27 28 24 17 16 19 24 25 27 27 29 33 37 33 34 36 38 45 45 43 52 57
58 57 56 53 48 44 42 42 40 37 32 30 26 23 21 25 26 22 24 21 17 18 22 19 18 19 28 36 39 32 33 33 39 38 43 46 48 49
50 48 47 44 41 40 40 41 40 37 32 31 26 23 19 26 27 26 25 23 19 13 16 16 16 20 29 36 41 39 40 40 43 44 48 51 49 51
Wind_Direction_500mb
208 208 207 211 215 213 200 207 207 168 151 170 242 311 335 335 337 337 341 354 352 3 360 0 2 3 7 8 3 358 351 355 353 356 353 344 333 326
203 205 205 212 205 193 186 195 209 216 159 191 203 304 326 331 335 342 2 359 359 2 24 38 35 25 17 9 5 5 7 3 1 359 350 345 345 353
191 198 202 199 184 177 172 175 186 194 199 164 165 322 330 339 338 349 356 355 3 48 44 28 33 33 30 25 22 21 18 13 8 2 360 355 5 2
198 198 187 172 166 160 160 152 155 152 163 142 123 353 352 357 355 3 7 7 54 53 31 29 37 35 30 26 20 17 14 13 6 3 1 3 2 4
199 192 174 169 154 152 147 145 136 128 129 111 68 31 29 48 30 35 46 55 72 45 39 46 44 38 35 33 28 19 15 11 6 2 3 6 7 10
184 178 162 155 145 156 156 131 132 132 111 84 78 73 58 67 56 61 69 74 61 55 55 50 38 33 32 32 30 23 20 18 15 12 4 5 12 7
167 165 154 153 158 153 133 129 133 125 105 92 86 80 78 77 71 74 73 68 64 49 36 31 30 30 29 29 26 25 22 23 22 18 21 19 10 9
166 158 158 168 139 134 133 123 107 106 96 92 88 82 82 82 84 74 74 62 55 57 45 40 34 35 26 25 21 22 26 25 27 30 36 37 37 39
163 160 160 143 143 143 137 130 116 100 88 81 84 84 88 91 89 77 67 59 54 44 46 45 38 42 28 26 19 19 31 31 32 36 40 42 44 44
167 162 154 147 147 143 136 122 109 93 83 77 75 85 85 89 76 63 59 62 58 48 35 31 38 43 40 32 22 20 32 36 36 37 39 39 40 40
155 147 147 141 139 140 132 123 113 98 84 73 75 78 93 86 82 78 69 65 56 43 35 31 28 44 40 29 24 24 32 39 37 42 43 41 44 44
146 146 147 136 134 132 128 122 111 101 87 77 73 80 90 101 88 81 65 55 47 42 31 36 42 38 45 34 31 28 36 44 42 42 48 52 50 48
150 150 143 139 133 129 123 115 109 106 94 73 73 92 97 108 86 82 68 60 51 49 33 46 47 45 48 40 36 35 35 51 53 48 48 49 49 51
151 144 139 138 133 128 121 111 111 110 103 79 88 89 96 101 80 81 78 61 54 50 52 53 48 48 47 47 44 42 43 44 49 53 54 57 56 54
145 138 138 137 134 127 118 117 125 114 109 90 91 92 99 90 90 87 90 87 81 69 60 56 56 53 50 52 49 44 44 44 51 56 60 49 50 49
145 142 143 139 136 130 127 125 127 114 102 93 99 96 100 101 101 93 97 104 79 56 55 59 55 57 61 53 51 48 43 43 49 57 60 60 56 53
148 145 144 141 138 136 135 133 131 122 111 96 98 94 92 107 106 100 99 93 71 65 62 63 60 60 63 60 58 52 48 51 53 55 59 59 56 52
151 148 143 144 143 143 142 140 139 130 124 113 98 88 84 85 95 101 93 90 74 67 61 62 71 69 65 62 58 54 55 54 53 54 55 56 54 50
153 147 143 143 140 141 144 145 143 137 130 125 115 98 82 78 78 93 104 97 77 69 67 62 62 64 65 60 59 55 52 51 49 49 50 52 52 49
150 145 143 142 143 141 145 145 142 150 152 135 118 104 83 81 80 83 97 112 85 80 77 68 76 62 65 56 58 59 63 54 46 45 45 51 53 48
146 143 143 145 143 141 143 145 148 145 141 136 125 111 85 77 83 74 74 109 112 95 90 77 67 74 74 76 70 74 59 49 48 50 49 49 49 47
147 145 147 147 145 144 146 150 151 148 137 127 123 106 91 77 78 81 74 79 119 105 95 93 97 96 79 77 73 82 59 59 63 64 63 58 59 60
152 151 152 153 153 154 156 156 152 141 131 123 118 109 92 77 73 79 82 77 81 129 118 106 99 100 92 86 85 83 78 69 72 71 68 66 62 62
Wind_Speed_850mb
55 53 46 39 28 29 29 35 38 35 21 12 12 12 22 31 37 33 30 24 38 51 56 56 55 53 51 48 45 46 41 40 37 32 31 29 27 26
51 51 44 33 26 23 27 34 35 34 27 19 10 7 21 31 25 28 24 27 39 46 47 53 61 54 48 45 40 45 43 39 36 33 31 30 28 25
47 44 36 28 26 24 26 32 35 27 25 25 9 8 23 22 20 22 17 27 37 36 46 49 58 71 65 60 56 49 44 41 38 37 33 29 22 21
40 40 37 32 29 27 28 30 27 18 12 19 7 10 17 18 17 17 22 24 26 35 38 44 55 65 68 61 68 65 53 44 38 38 32 28 22 19
45 38 37 36 36 33 27 26 22 21 17 11 10 13 13 15 16 20 25 29 35 36 42 49 53 69 80 71 61 64 58 53 45 40 33 26 24 19
43 38 40 39 38 33 27 28 25 20 16 15 16 15 20 24 24 30 35 34 31 35 38 46 55 57 77 93 73 64 63 59 54 43 32 27 24 23
56 52 49 43 32 23 29 30 21 20 22 22 23 25 28 28 34 33 36 36 39 34 32 43 51 60 61 84 91 64 61 61 57 51 48 36 28 25
69 63 55 37 43 36 35 31 25 21 26 24 33 33 32 29 31 33 37 42 53 41 44 47 48 56 65 74 91 68 58 59 59 55 49 43 38 36
69 65 50 48 42 42 38 37 36 31 34 34 40 37 33 30 26 30 38 42 51 50 47 44 44 55 60 64 85 71 55 55 53 51 48 48 47 43
67 57 46 54 48 44 46 46 44 45 47 47 45 42 37 30 26 28 29 41 51 52 53 55 46 46 61 60 76 72 51 52 54 52 50 46 43 39
57 58 59 56 51 45 44 47 49 50 50 49 46 41 29 29 30 30 43 48 56 58 54 48 47 41 54 61 67 72 49 47 50 50 50 50 45 41
68 64 59 59 49 41 41 43 49 48 42 42 41 34 29 29 33 40 46 53 50 46 57 43 45 51 43 55 67 69 52 44 50 53 50 53 52 57
78 70 64 56 52 45 39 41 47 44 37 36 36 31 31 28 34 37 44 47 51 53 48 46 47 48 54 49 58 75 60 45 50 54 52 54 54 55
79 73 71 64 58 49 44 43 46 40 34 33 36 35 33 35 35 33 38 39 41 42 46 48 47 44 47 54 59 68 76 62 53 56 58 50 53 55
79 78 73 64 59 50 44 44 40 38 35 35 39 43 41 41 38 37 36 36 45 46 47 51 53 42 40 52 53 62 76 78 66 54 49 52 59 55
75 79 71 64 54 52 47 44 38 37 36 36 38 36 33 36 32 31 34 30 33 37 39 41 48 50 37 42 48 55 61 75 78 73 69 62 59 64
86 82 73 63 56 52 50 46 38 38 36 37 40 36 30 26 25 23 29 23 25 31 39 38 43 50 47 44 45 47 55 64 74 85 92 89 82 75
82 78 70 61 59 57 53 48 42 34 33 31 36 34 35 30 23 20 22 22 25 28 31 33 34 40 45 46 44 46 53 56 59 70 82 93 98 90
74 71 69 64 60 54 50 46 46 36 30 30 27 25 27 28 28 24 21 21 23 26 27 28 33 37 38 40 41 43 43 46 49 58 64 74 82 90
69 69 65 59 56 53 50 47 43 39 33 27 23 22 21 25 29 27 21 18 19 23 22 25 29 34 34 38 38 37 37 37 42 45 50 55 61 66
65 62 59 58 54 50 47 45 40 37 34 30 25 20 19 23 27 28 24 17 16 19 24 25 27 27 29 33 37 33 34 36 38 45 45 43 52 57
58 57 56 53 48 44 42 42 40 37 32 30 26 23 21 25 26 22 24 21 17 18 22 19 18 19 28 36 39 32 33 33 39 38 43 46 48 49
50 48 47 44 41 40 40 41 40 37 32 31 26 23 19 26 27 26 25 23 19 13 16 16 16 20 29 36 41 39 40 40 43 44 48 51 49 51
Wind_Direction_850mb
208 208 207 211 215 213 200 207 207 168 151 170 242 311 335 335 337 337 341 354 352 3 360 0 2 3 7 8 3 358 351 355 353 356 353 344 333 326
203 205 205 212 205 193 186 195 209 216 159 191 203 304 326 331 335 342 2 359 359 2 24 38 35 25 17 9 5 5 7 3 1 359 350 345 345 353
191 198 202 199 184 177 172 175 186 194 199 164 165 322 330 339 338 349 356 355 3 48 44 28 33 33 30 25 22 21 18 13 8 2 360 355 5 2
198 198 187 172 166 160 160 152 155 152 163 142 123 353 352 357 355 3 7 7 54 53 31 29 37 35 30 26 20 17 14 13 6 3 1 3 2 4
199 192 174 169 154 152 147 145 136 128 129 111 68 31 29 48 30 35 46 55 72 45 39 46 44 38 35 33 28 19 15 11 6 2 3 6 7 10
184 178 162 155 145 156 156 131 132 132 111 84 78 73 58 67 56 61 69 74 61 55 55 50 38 33 32 32 30 23 20 18 15 12 4 5 12 7
167 165 154 153 158 153 133 129 133 125 105 92 86 80 78 77 71 74 73 68 64 49 36 31 30 30 29 29 26 25 22 23 22 18 21 19 10 9
166 158 158 168 139 134 133 123 107 106 96 92 88 82 82 82 84 74 74 62 55 57 45 40 34 35 26 25 21 22 26 25 27 30 36 37 37 39
163 160 160 143 143 143 137 130 116 100 88 81 84 84 88 91 89 77 67 59 54 44 46 45 38 42 28 26 19 19 31 31 32 36 40 42 44 44
167 162 154 147 147 143 136 122 109 93 83 77 75 85 85 89 76 63 59 62 58 48 35 31 38 43 40 32 22 20 32 36 36 37 39 39 40 40
155 147 147 141 139 140 132 123 113 98 84 73 75 78 93 86 82 78 69 65 56 43 35 31 28 44 40 29 24 24 32 39 37 42 43 41 44 44
146 146 147 136 134 132 128 122 111 101 87 77 73 80 90 101 88 81 65 55 47 42 31 36 42 38 45 34 31 28 36 44 42 42 48 52 50 48
150 150 143 139 133 129 123 115 109 106 94 73 73 92 97 108 86 82 68 60 51 49 33 46 47 45 48 40 36 35 35 51 53 48 48 49 49 51
151 144 139 138 133 128 121 111 111 110 103 79 88 89 96 101 80 81 78 61 54 50 52 53 48 48 47 47 44 42 43 44 49 53 54 57 56 54
145 138 138 137 134 127 118 117 125 114 109 90 91 92 99 90 90 87 90 87 81 69 60 56 56 53 50 52 49 44 44 44 51 56 60 49 50 49
145 142 143 139 136 130 127 125 127 114 102 93 99 96 100 101 101 93 97 104 79 56 55 59 55 57 61 53 51 48 43 43 49 57 60 60 56 53
148 145 144 141 138 136 135 133 131 122 111 96 98 94 92 107 106 100 99 93 71 65 62 63 60 60 63 60 58 52 48 51 53 55 59 59 56 52
151 148 143 144 143 143 142 140 139 130 124 113 98 88 84 85 95 101 93 90 74 67 61 62 71 69 65 62 58 54 55 54 53 54 55 56 54 50
153 147 143 143 140 141 144 145 143 137 130 125 115 98 82 78 78 93 104 97 77 69 67 62 62 64 65 60 59 55 52 51 49 49 50 52 52 49
150 145 143 142 143 141 145 145 142 150 152 135 118 104 83 81 80 83 97 112 85 80 77 68 76 62 65 56 58 59 63 54 46 45 45 51 53 48
146 143 143 145 143 141 143 145 148 145 141 136 125 111 85 77 83 74 74 109 112 95 90 77 67 74 74 76 70 74 59 49 48 50 49 49 49 47
147 145 147 147 145 144 146 150 151 148 137 127 123 106 91 77 78 81 74 79 119 105 95 93 97 96 79 77 73 82 59 59 63 64 63 58 59 60
152 151 152 153 153 154 156 156 152 141 131 123 118 109 92 77 73 79 82 77 81 129 118 106 99 100 92 86 85 83 78 69 72 71 68 66 62 62